Lancaster, PA

6:07 AM EDT on September 27, 2016 (GMT -0400)
Lancaster

Weather History for KLNS - September, 2011

Change the Weather History Date:

Friday, September 9, 2011

  Actual Average Record
Temperature  
Mean Temperature 74 °F -  
Max Temperature 80 °F 77 °F 93 °F (2015)
Min Temperature 68 °F 56 °F 37 °F (1986)
Cooling Degree Days 9    
Growing Degree Days 24 (Base 50)    
Moisture  
Dew Point 68 °F    
Average Humidity 86    
Maximum Humidity 96    
Minimum Humidity 65    
Precipitation  
Precipitation 0.00 in - - ()
Sea Level Pressure  
Sea Level Pressure 29.87 in    
Wind  
Wind Speed 4 mph (NE)    
Max Wind Speed 8 mph    
Max Gust Speed -    
Visibility 6 miles    
Events Rain    
Averages and records for this station are not official NWS values.
T = Trace of Precipitation, MM = Missing Value Source: NWS Daily Summary

Daily Weather History Graph

Daily Weather History Graph

Search for Another Location

Airport or City:

Trip Planner

Search our weather history database for the weather conditions in past years. The results will help you decide how hot, cold, wet, or windy it might be!

Date:

Astronomy

Sep. 09, 2011 Rise Set
Actual Time 6:40 AM EDT 7:24 PM EDT
Civil Twilight 6:12 AM EDT 7:51 PM EDT
Nautical Twilight 5:40 AM EDT 8:24 PM EDT
Astronomical Twilight 5:06 AM EDT 8:57 PM EDT
Moon 5:49 PM EDT (9/9) 3:57 AM EDT (9/9)
Length of Visible Light 13h 39m
Length of Day
12h 44m
Waxing Gibbous, 93% of the Moon is Illuminated
Sep 9
Waxing Gibbous
Sep 12
Full
Sep 20
Last Quarter
Sep 27
New
Oct 3
First Quarter

Hourly Weather History & Observations

Time (EDT) Temp. Heat Index Dew Point Humidity Pressure Visibility Wind Dir Wind Speed Gust Speed Precip Events Conditions
12:29 AM 71.6 °F - 68.0 °F 88% 29.92 in 9.0 mi ENE 4.6 mph - N/A   Overcast
12:53 AM 71.1 °F - 68.0 °F 90% 29.92 in 8.0 mi Calm Calm - N/A   Overcast
1:23 AM 69.8 °F - 68.0 °F 94% 29.90 in 7.0 mi ENE 4.6 mph - N/A   Mostly Cloudy
1:31 AM 69.8 °F - 68.0 °F 94% 29.90 in 7.0 mi ENE 4.6 mph - N/A   Scattered Clouds
1:49 AM 69.8 °F - 68.0 °F 94% 29.89 in 7.0 mi ENE 3.5 mph - N/A   Mostly Cloudy
1:53 AM 70.0 °F - 68.0 °F 93% 29.88 in 7.0 mi East 3.5 mph - N/A   Mostly Cloudy
2:14 AM 69.8 °F - 68.0 °F 94% 29.89 in 7.0 mi ENE 5.8 mph - N/A   Overcast
2:53 AM 71.1 °F - 68.0 °F 90% 29.89 in 5.0 mi ENE 5.8 mph - N/A   Overcast
3:53 AM 70.0 °F - 68.0 °F 93% 29.86 in 5.0 mi NE 8.1 mph - N/A   Mostly Cloudy
4:32 AM 69.8 °F - 68.0 °F 94% 29.87 in 4.0 mi Calm Calm - N/A   Scattered Clouds
4:45 AM 69.8 °F - 66.2 °F 88% 29.87 in 4.0 mi Calm Calm - N/A   Mostly Cloudy
4:53 AM 69.1 °F - 66.9 °F 93% 29.87 in 4.0 mi West 3.5 mph - N/A   Mostly Cloudy
5:53 AM 70.0 °F - 68.0 °F 93% 29.87 in 4.0 mi Calm Calm - N/A   Overcast
6:53 AM 69.1 °F - 68.0 °F 96% 29.88 in 3.0 mi Calm Calm - 0.00 in Rain Light Rain
7:00 AM 69.8 °F - 68.0 °F 94% 29.89 in 2.5 mi Calm Calm - 0.00 in   Overcast
7:53 AM 69.1 °F - 66.9 °F 93% 29.91 in 2.0 mi ENE 6.9 mph - 0.00 in   Overcast
8:15 AM 68.0 °F - 66.2 °F 94% 29.91 in 1.5 mi NE 5.8 mph - N/A   Overcast
8:33 AM 68.0 °F - 66.2 °F 94% 29.91 in 1.2 mi NE 4.6 mph - N/A   Overcast
8:53 AM 68.0 °F - 66.9 °F 96% 29.90 in 1.8 mi NE 5.8 mph - N/A   Overcast
9:25 AM 69.8 °F - 66.2 °F 88% 29.90 in 2.0 mi NE 8.1 mph - N/A   Overcast
9:35 AM 69.8 °F - 66.2 °F 88% 29.90 in 2.5 mi ENE 5.8 mph - N/A   Overcast
9:42 AM 69.8 °F - 66.2 °F 88% 29.90 in 3.0 mi NE 4.6 mph - N/A   Overcast
9:53 AM 69.1 °F - 68.0 °F 96% 29.90 in 4.0 mi NE 5.8 mph - N/A   Overcast
10:53 AM 71.1 °F - 68.0 °F 90% 29.89 in 8.0 mi NE 4.6 mph - N/A   Overcast
11:22 AM 71.6 °F - 68.0 °F 88% 29.89 in 10.0 mi ESE 3.5 mph - N/A   Overcast
11:53 AM 72.0 °F - 66.9 °F 84% 29.88 in 10.0 mi Calm Calm - N/A   Mostly Cloudy
12:53 PM 75.9 °F - 68.0 °F 76% 29.88 in 10.0 mi Calm Calm - N/A   Mostly Cloudy
1:53 PM 78.1 °F - 69.1 °F 74% 29.87 in 10.0 mi SW 4.6 mph - N/A   Overcast
2:00 PM 78.8 °F - 69.8 °F 74% 29.87 in 10.0 mi West 3.5 mph - N/A   Mostly Cloudy
2:53 PM 79.0 °F - 69.1 °F 72% 29.85 in 10.0 mi South 3.5 mph - N/A   Overcast
3:46 PM 80.6 °F 83.9 °F 69.8 °F 70% 29.84 in 10.0 mi Variable 3.5 mph - N/A   Mostly Cloudy
3:53 PM 80.1 °F 82.9 °F 69.1 °F 69% 29.83 in 10.0 mi South 4.6 mph - N/A   Mostly Cloudy
4:12 PM 80.6 °F 83.2 °F 68.0 °F 65% 29.83 in 10.0 mi Calm Calm - N/A   Mostly Cloudy
4:53 PM 80.1 °F 82.7 °F 68.0 °F 67% 29.82 in 10.0 mi South 3.5 mph - N/A   Mostly Cloudy
5:05 PM 80.6 °F 83.9 °F 69.8 °F 70% 29.83 in 10.0 mi South 5.8 mph - N/A   Mostly Cloudy
5:49 PM 78.8 °F - 71.6 °F 78% 29.83 in 9.0 mi NNW 4.6 mph - N/A   Overcast
5:53 PM 78.1 °F - 71.1 °F 79% 29.83 in 9.0 mi NNW 4.6 mph - N/A   Overcast
6:27 PM 77.0 °F - 69.8 °F 78% 29.84 in 7.0 mi NW 6.9 mph - N/A   Overcast
6:53 PM 75.9 °F - 70.0 °F 82% 29.83 in 6.0 mi NW 3.5 mph - N/A   Haze
7:01 PM 75.2 °F - 69.8 °F 83% 29.84 in 6.0 mi Calm Calm - N/A   Haze
7:40 PM 75.2 °F - 69.8 °F 83% 29.85 in 7.0 mi Calm Calm - N/A   Overcast
7:53 PM 75.9 °F - 70.0 °F 82% 29.84 in 7.0 mi Calm Calm - N/A   Overcast
8:53 PM 73.9 °F - 71.1 °F 91% 29.87 in 7.0 mi Calm Calm - N/A   Overcast
10:53 PM 73.0 °F - 71.1 °F 93% 29.88 in 6.0 mi SSW 3.5 mph - N/A   Overcast
11:53 PM 72.0 °F - 69.1 °F 91% 29.88 in 6.0 mi Calm Calm - N/A   Clear